This is the latest recevied weather packets stored in our database for station/object N5LSN. If no packets are shown the sender has not sent any weather packets the latest 1 day(s).
| Time | Temp. | Humidity | Pressure | Rain* | Wind** | Luminosity | Snow |
|---|---|---|---|---|---|---|---|
| 1836274826 | 20.56° C | 97% | 1017.6 hPa | 0 mm | 1.34 m/s, 26° | 0 W/m² | - |
| 1836274523 | 20.56° C | 97% | 1017.5 hPa | 0 mm | 0.45 m/s, 354° | 0 W/m² | - |
| 1836274377 | 20.56° C | 97% | 1017.6 hPa | 0 mm | 0 m/s | 0 W/m² | - |
| 1836274223 | 20.56° C | 97% | 1017.4 hPa | 0 mm | 0.45 m/s, 8° | 0 W/m² | - |
| 1836273922 | 20.56° C | 97% | 1017.1 hPa | 0 mm | 0 m/s | 0 W/m² | - |
| 1778060425 | 10.56° C | 99% | 1011.6 hPa | 0 mm | 2.24 m/s, 38° | 0 W/m² | - |
| 1778060123 | 10.56° C | 99% | 1011.6 hPa | 0 mm | 3.13 m/s, 88° | 0 W/m² | - |
| 1778059821 | 10.56° C | 99% | 1011.5 hPa | 0 mm | 1.34 m/s, 43° | 0 W/m² | - |
| 1778059519 | 10.56° C | 99% | 1010.9 hPa | 0.51 mm | 2.24 m/s, 31° | 0 W/m² | - |
| 1778059215 | 10.56° C | 99% | 1011.2 hPa | 1.27 mm | 1.79 m/s, 17° | 0 W/m² | - |
| 1778058913 | 11.11° C | 99% | 1011.9 hPa | 1.78 mm | 0.89 m/s, 67° | 0 W/m² | - |
| 1778058610 | 11.11° C | 99% | 1010.9 hPa | 1.27 mm | 5.36 m/s, 9° | 0 W/m² | - |
| 1778058308 | 11.11° C | 99% | 1011.5 hPa | 0 mm | 2.68 m/s, 30° | 0 W/m² | - |
| 1778058004 | 11.11° C | 99% | 1010.9 hPa | 0 mm | 1.79 m/s, 20° | 0 W/m² | - |
| 1778057701 | 11.11° C | 99% | 1010.6 hPa | 0 mm | 3.13 m/s, 5° | 0 W/m² | - |
| 1778057397 | 11.11° C | 99% | 1010.5 hPa | 0 mm | 1.79 m/s, 8° | 0 W/m² | - |
| 1778057094 | 11.11° C | 99% | 1010.4 hPa | 2.29 mm | 5.36 m/s, 47° | 0 W/m² | - |
| 1778056790 | 11.11° C | 99% | 1011.7 hPa | 5.33 mm | 4.02 m/s, 18° | 0 W/m² | - |
| 1778056488 | 11.11° C | 99% | 1011 hPa | 6.6 mm | 2.24 m/s, 23° | 0 W/m² | - |
| 1778056185 | 11.67° C | 99% | 1012.8 hPa | 3.56 mm | 4.02 m/s, 277° | 0 W/m² | - |
| 1778055882 | 11.67° C | 99% | 1010.6 hPa | 1.78 mm | 1.34 m/s, 35° | 0 W/m² | - |
| 1778055577 | 11.67° C | 99% | 1009.9 hPa | 4.83 mm | 2.24 m/s, 9° | 0 W/m² | - |
| 1778055276 | 11.67° C | 99% | 1009.9 hPa | 12.7 mm | 2.68 m/s, 345° | 0 W/m² | - |
| 1778054973 | 12.22° C | 99% | 1009.7 hPa | 19.81 mm | 3.13 m/s, 34° | 0 W/m² | - |
| 1778054670 | 12.22° C | 99% | 1009.1 hPa | 27.69 mm | 4.02 m/s, 23° | 0 W/m² | - |
* Rain latest hour (hover to see other rain measurements)
** Current wind speed in m/s (hover to see current wind gust speed)